| time (UTC) | temp C | wind direction | speed KPH | gust KPH | rain 1hr cm | rain 24hr cm | rain mn cm | humidity % | barometer mb |
| 20260503224719 | 9 | 159 | 4.8 | 12.9 | 0.10 | 0.23 | 0.23 | 87 | 1005.4 |
| 20260503223716 | 9 | 210 | 4.8 | 12.9 | 0.08 | 0.20 | 0.20 | 88 | 1005.3 |
| 20260503222716 | 9 | 151 | 3.2 | 8.0 | 0.05 | 0.18 | 0.18 | 89 | 1005.6 |
| 20260503221716 | 9 | 157 | 3.2 | 6.4 | 0.05 | 0.18 | 0.18 | 88 | 1005.5 |
| 20260503220714 | 9 | 160 | 4.8 | 9.7 | 0.03 | 0.15 | 0.15 | 87 | 1005.6 |
| 20260503215714 | 9 | 165 | 4.8 | 11.3 | 0.00 | 0.13 | 0.13 | 87 | 1005.5 |
| 20260503214711 | 9 | 157 | 4.8 | 12.9 | 0.00 | 0.13 | 0.13 | 88 | 1005.5 |
| 20260503213711 | 8 | 148 | 4.8 | 11.3 | 0.00 | 0.13 | 0.13 | 89 | 1005.5 |
| 20260503213151 | 8 | 148 | 3.2 | 8.0 | 0.00 | 0.13 | 0.13 | 90 | 1005.4 |
| 20260503212146 | 8 | 198 | 4.8 | 11.3 | 0.00 | 0.13 | 0.13 | 90 | 1005.5 |
| 20260503210711 | 8 | 154 | 6.4 | 12.9 | 0.03 | 0.13 | 0.13 | 90 | 1005.5 |
| 20260503205711 | 8 | 192 | 4.8 | 9.7 | 0.05 | 0.13 | 0.13 | 90 | 1005.6 |
| 20260503204714 | 8 | 182 | 4.8 | 9.7 | 0.05 | 0.13 | 0.13 | 90 | 1005.7 |
| 20260503203712 | 8 | 188 | 4.8 | 9.7 | 0.05 | 0.13 | 0.13 | 90 | 1005.8 |
| 20260503202712 | 8 | 118 | 4.8 | 12.9 | 0.10 | 0.13 | 0.13 | 89 | 1005.9 |
| 20260503201712 | 8 | 171 | 4.8 | 9.7 | 0.10 | 0.13 | 0.13 | 88 | 1006.1 |
| 20260503200712 | 8 | 155 | 4.8 | 11.3 | 0.08 | 0.10 | 0.10 | 87 | 1006.1 |
| 20260503200148 | 8 | 187 | 4.8 | 9.7 | 0.05 | 0.08 | 0.08 | 86 | 1006.2 |
| 20260503194716 | 8 | 174 | 8.0 | 16.1 | 0.05 | 0.08 | 0.08 | 85 | 1006.3 |
| 20260503194216 | 8 | 192 | 9.7 | 20.9 | 0.08 | 0.08 | 0.08 | 82 | 1006.4 |
| 20260503192708 | 9 | 144 | 6.4 | 17.7 | 0.03 | 0.03 | 0.03 | 78 | 1006.6 |
| 20260503191707 | 10 | 147 | 6.4 | 20.9 | 0.03 | 0.03 | 0.03 | 74 | 1006.8 |
| 20260503191631 | 10 | 148 | 6.4 | 20.9 | 0.03 | 0.03 | 0.03 | 67 | 1007.0 |
| 20260503185708 | 11 | 184 | 1.6 | 12.9 | 0.03 | 0.03 | 0.03 | 67 | 1006.8 |
| 20260503184658 | 11 | 355 | 1.6 | 8.0 | 0.03 | 0.03 | 0.03 | 65 | 1006.8 |
| 20260503183657 | 11 | 194 | 3.2 | 11.3 | 0.00 | 0.00 | 0.00 | 62 | 1007.0 |
| 20260503182655 | 11 | 291 | 6.4 | 19.3 | 0.00 | 0.00 | 0.00 | 58 | 1007.2 |
| 20260503181656 | 12 | 191 | 6.4 | 19.3 | 0.00 | 0.00 | 0.00 | 52 | 1007.1 |
| 20260503180655 | 12 | 162 | 6.4 | 17.7 | 0.00 | 0.00 | 0.00 | 52 | 1007.1 |
| 20260503175656 | 12 | 200 | 4.8 | 14.5 | 0.00 | 0.00 | 0.00 | 50 | 1007.1 |
| 20260503174655 | 12 | 113 | 6.4 | 14.5 | 0.00 | 0.00 | 0.00 | 50 | 1007.1 |
| 20260503173654 | 12 | 207 | 4.8 | 14.5 | 0.00 | 0.00 | 0.00 | 51 | 1007.5 |
| 20260503172656 | 12 | 306 | 4.8 | 14.5 | 0.00 | 0.00 | 0.00 | 49 | 1007.3 |
| 20260503172143 | 13 | 178 | 8.0 | 20.9 | 0.00 | 0.00 | 0.00 | 48 | 1007.5 |
| 20260503170653 | 13 | 240 | 6.4 | 16.1 | 0.00 | 0.00 | 0.00 | 47 | 1007.4 |
| 20260503170143 | 13 | 169 | 8.0 | 20.9 | 0.00 | 0.00 | 0.00 | 47 | 1007.4 |
| 20260503150651 | 11 | 171 | 9.7 | 27.4 | 0.00 | 0.00 | 0.00 | 45 | 1008.6 |
| 20260503130648 | 6 | 150 | 6.4 | 16.1 | 0.00 | 0.00 | 0.00 | 66 | 1010.4 |
| 20260503110641 | 0 | 169 | 4.8 | 9.7 | 0.00 | 0.03 | 0.00 | 83 | 1011.0 |
| 20260503081632 | -1 | 184 | 3.2 | 4.8 | 0.00 | 0.03 | 0.00 | 85 | 1011.7 |
| 20260503080632 | -1 | 187 | 1.6 | 4.8 | 0.00 | 0.03 | 0.00 | 84 | 1011.6 |
| 20260503072628 | -1 | 200 | 3.2 | 4.8 | 0.00 | 0.03 | 0.00 | 83 | 1011.8 |
| 20260503071627 | -1 | 188 | 3.2 | 4.8 | 0.00 | 0.03 | 0.00 | 83 | 1011.8 |
| 20260503070626 | -1 | 173 | 3.2 | 4.8 | 0.00 | 0.03 | 0.00 | 84 | 1011.8 |
| 20260503054620 | 0 | 180 | 3.2 | 6.4 | 0.00 | 0.03 | 0.00 | 84 | 1012.4 |
| 20260503053621 | 0 | 167 | 3.2 | 4.8 | 0.00 | 0.03 | 0.00 | 85 | 1012.5 |
| 20260503052619 | -1 | 180 | 3.2 | 4.8 | 0.00 | 0.03 | 0.00 | 85 | 1012.6 |
| 20260503051619 | -1 | 182 | 1.6 | 4.8 | 0.00 | 0.03 | 0.00 | 86 | 1012.7 |
| 20260503050625 | -1 | 169 | 3.2 | 4.8 | 0.00 | 0.03 | 0.00 | 85 | 1012.8 |
| 20260503045617 | -1 | 162 | 3.2 | 6.4 | 0.00 | 0.03 | 0.00 | 85 | 1012.9 |
| 20260503044617 | -1 | 166 | 3.2 | 4.8 | 0.00 | 0.03 | 0.00 | 85 | 1012.9 |
| 20260503043613 | -1 | 183 | 3.2 | 6.4 | 0.00 | 0.03 | 0.00 | 85 | 1013.1 |
| 20260503042615 | -1 | 170 | 3.2 | 4.8 | 0.00 | 0.03 | 0.00 | 84 | 1013.1 |
| 20260503042524 | 0 | 167 | 3.2 | 6.4 | 0.00 | 0.03 | 0.00 | 84 | 1013.1 |
| 20260503041050 | 0 | 158 | 1.6 | 4.8 | 0.00 | 0.03 | 0.00 | 83 | 1013.1 |
| 20260503035614 | 0 | 151 | 1.6 | 3.2 | 0.00 | 0.03 | 0.03 | 82 | 1013.2 |
| 20260503034614 | 0 | 154 | 0.0 | 3.2 | 0.00 | 0.03 | 0.03 | 82 | 1013.3 |
| 20260503033615 | 0 | 132 | 0.0 | 3.2 | 0.00 | 0.03 | 0.03 | 80 | 1013.3 |
| 20260503032614 | 0 | 140 | 0.0 | 0.0 | 0.00 | 0.03 | 0.03 | 79 | 1013.4 |
| 20260503031614 | 0 | 165 | 0.0 | 0.0 | 0.00 | 0.03 | 0.03 | 78 | 1013.4 |
| 20260503031059 | 0 | 165 | 0.0 | 0.0 | 0.00 | 0.03 | 0.03 | 77 | 1013.5 |
| 20260503025612 | 0 | 165 | 0.0 | 0.0 | 0.00 | 0.03 | 0.03 | 76 | 1013.5 |
| 20260503025048 | 0 | 165 | 0.0 | 0.0 | 0.00 | 0.03 | 0.03 | 73 | 1013.6 |
| 20260503023609 | 0 | 165 | 0.0 | 0.0 | 0.00 | 0.03 | 0.03 | 73 | 1013.7 |
| 20260503022604 | 1 | 165 | 0.0 | 0.0 | 0.00 | 0.03 | 0.03 | 71 | 1013.7 |
| 20260503021603 | 1 | 165 | 0.0 | 0.0 | 0.00 | 0.03 | 0.03 | 71 | 1013.8 |
| 20260503020604 | 1 | 159 | 0.0 | 0.0 | 0.00 | 0.03 | 0.03 | 70 | 1013.7 |
| 20260503015603 | 1 | 159 | 1.6 | 3.2 | 0.00 | 0.03 | 0.03 | 70 | 1013.6 |
| 20260503015042 | 2 | 166 | 3.2 | 4.8 | 0.00 | 0.03 | 0.03 | 68 | 1013.5 |
| 20260503013601 | 2 | 172 | 0.0 | 4.8 | 0.00 | 0.03 | 0.03 | 67 | 1013.5 |
| 20260503012559 | 2 | 195 | 0.0 | 0.0 | 0.00 | 0.03 | 0.03 | 65 | 1013.6 |
| 20260503011558 | 3 | 195 | 0.0 | 0.0 | 0.00 | 0.03 | 0.03 | 62 | 1013.5 |
| 20260503010552 | 3 | 195 | 0.0 | 0.0 | 0.00 | 0.03 | 0.03 | 61 | 1013.5 |
| 20260503010034 | 4 | 191 | 0.0 | 0.0 | 0.00 | 0.03 | 0.03 | 58 | 1013.5 |
| 20260503004552 | 4 | 196 | 0.0 | 0.0 | 0.00 | 0.03 | 0.03 | 55 | 1013.4 |
| 20260503003551 | 5 | 143 | 1.6 | 3.2 | 0.00 | 0.03 | 0.03 | 52 | 1013.4 |
| 20260503002552 | 5 | 171 | 1.6 | 4.8 | 0.00 | 0.03 | 0.03 | 46 | 1013.5 |
| 20260503001552 | 5 | 210 | 1.6 | 4.8 | 0.00 | 0.03 | 0.03 | 44 | 1013.5 |
| 20260503000554 | 5 | 204 | 1.6 | 8.0 | 0.00 | 0.03 | 0.03 | 45 | 1013.4 |
| 20260502235549 | 5 | 282 | 1.6 | 9.7 | 0.00 | 0.03 | 0.03 | 43 | 1013.4 |
| 20260502234549 | 6 | 284 | 3.2 | 8.0 | 0.00 | 0.03 | 0.03 | 42 | 1013.4 |
| 20260502234030 | 6 | 269 | 4.8 | 9.7 | 0.00 | 0.03 | 0.03 | 40 | 1013.4 |
| 20260502232549 | 7 | 324 | 3.2 | 9.7 | 0.00 | 0.03 | 0.03 | 39 | 1013.5 |
| 20260502232037 | 7 | 96 | 3.2 | 9.7 | 0.00 | 0.03 | 0.03 | 39 | 1013.5 |
| 20260502230547 | 7 | 333 | 3.2 | 9.7 | 0.00 | 0.03 | 0.03 | 39 | 1013.5 |
| 20260502225548 | 7 | 253 | 3.2 | 11.3 | 0.00 | 0.03 | 0.03 | 39 | 1013.5 |